Location: La Pernelle
(49.6188°N, 1.2999°W)
Time: 16:50:47
(UTC+00:00)

USA 267 - Pass Details

Date: 12 June 2021
Orbit: 1102 x 1106 km, 123.0° (Epoch: 28 July)

Event Time Altitude Azimuth Distance (km) Brightness Sun altitude
Exits shadow 23:24:44 23° 156° (SSE) 2,134 4.2 -16.6°
Maximum altitude 23:28:43 52° 223° (SW) 1,343 3.5 -16.7°
Drops below altitude 10° 23:35:06 10° 299° (WNW) 2,968 6.0 -16.9°
Sets 23:37:41 0° 304° (NW) 3,929 6.8 -16.9°
